HAWK-5A

Last updated on Thu Sep 24 2026 00:03:56 GMT+0000 (Coordinated Universal Time)

1 52757U 22057AB 26266.43519161 .00015259 00000+0 23282-3 0 9995 2 52757 97.6689 71.9397 0005214 73.8262 286.3564 15.54543195241596
UTC large
Height (km)
Speed (km/s)
/
Latitude / Longitude
Inclination (degrees)
Orbital Period (minutes)
Azimuth
Elevation
Range (km)
Doppler Factor

Next 0 passes for location: London (51.5072 / 0.1276)

No passes found over London.
HAWK-5A